Location: Sternwarte ZA, Rosenfeld-Brittheim
(48.2889°N, 8.6789°E)
Time: 20:22:38
(UTC+02:00)

ISS - Pass Details

Date: 13 July 2019
Orbit: 409 x 418 km, 51.6° (Epoch: 20 July)

Event Time Altitude Azimuth Distance (km) Brightness Sun altitude
Rises 03:57:49 0° 284° (WNW) 2,346 -0.2 -12.5°
Reaches altitude 10° 03:59:57 10° 290° (WNW) 1,482 -1.1 -12.3°
Maximum altitude 04:03:11 46° 6° (N) 560 -2.7 -12.0°
Drops below altitude 10° 04:06:24 10° 82° (E) 1,477 -0.3 -11.7°
Sets 04:08:32 0° 88° (E) 2,337 0.6 -11.5°
